This is the latest recevied weather packets stored in our database for station/object KO4IEJ-15. If no packets are shown the sender has not sent any weather packets the latest 10 day(s).
| Time | Temp. | Humidity | Pressure | Rain* | Wind** | Luminosity | Snow |
|---|---|---|---|---|---|---|---|
| 1777190430 | 20° C | 92% | 1009.9 hPa | 0 mm | - | - | - |
| 1777184131 | 21.11° C | 89% | 1010.3 hPa | 0 mm | - | - | - |
| 1777180531 | 21.11° C | 88% | 1010.7 hPa | 0 mm | - | - | - |
| 1777176944 | 21.67° C | 87% | 1010.9 hPa | 0 mm | - | - | - |
| 1777174230 | 22.22° C | 86% | 1010.9 hPa | 0 mm | - | - | - |
| 1777170629 | 22.22° C | 85% | 1010.7 hPa | 0 mm | - | - | - |
| 1777166128 | 22.78° C | 86% | 1010.5 hPa | 0 mm | - | - | - |
| 1777152630 | 28.33° C | 62% | 1009.1 hPa | 0 mm | - | - | - |
| 1777151736 | 28.89° C | 55% | 1008.6 hPa | 0 mm | - | - | - |
| 1777146335 | 30° C | 51% | 1009.3 hPa | 0 mm | - | - | - |
| 1777145438 | 30° C | 52% | 1009.5 hPa | 0 mm | - | - | - |
| 1777142744 | 29.44° C | 57% | 1010.2 hPa | 0 mm | - | - | - |
| 1777140942 | 29.44° C | 54% | 1010.6 hPa | 0 mm | - | - | - |
| 1777138236 | 28.89° C | 54% | 1010.9 hPa | 0 mm | - | - | - |
| 1777133754 | 27.78° C | 60% | 1011.4 hPa | 0 mm | - | - | - |
| 1777130134 | 26.11° C | 69% | 1011.6 hPa | 0 mm | - | - | - |
| 1777129240 | 26.11° C | 73% | 1011.6 hPa | 0 mm | - | - | - |
| 1777126530 | 25° C | 78% | 1011.7 hPa | 0 mm | - | - | - |
| 1777119336 | 20.56° C | 92% | 1011.7 hPa | 0 mm | - | - | - |
| 1777118447 | 20.56° C | 94% | 1011.5 hPa | 0 mm | - | - | - |
| 1777116631 | 18.89° C | 96% | 1011.5 hPa | 0 mm | - | - | - |
| 1777115731 | 18.89° C | 96% | 1011.2 hPa | 0 mm | - | - | - |
| 1777112132 | 18.89° C | 95% | 1010.8 hPa | 0 mm | - | - | - |
| 1777110332 | 18.89° C | 94% | 1010.7 hPa | 0 mm | - | - | - |
| 1777104038 | 20° C | 92% | 1010.9 hPa | 0 mm | - | - | - |
* Rain latest hour (hover to see other rain measurements)
** Current wind speed in m/s (hover to see current wind gust speed)